Tracking 19177 objects as of 25-May-2018
HD Live streaming from Space Station
objects crossing your sky now

RELAY 1 (A-15)

Track RELAY 1 (A-15) now!
10-day predictions
RELAY 1 (A-15) is classified as:


NORAD ID: 503
Int'l Code: 1962-068A
Perigee: 1,327.9 km
Apogee: 7,443.9 km
Inclination: 47.5 °
Period: 185.1 minutes
Semi major axis: 10756 km
RCS: 0.9602 m2 (medium)
Launch date: December 13, 1962
Source: United States (US)
Launch site: AIR FORCE EASTERN TEST RANGE (AFETR)
aabbcc
Your satellite tracking list
Your tracking list is empty




NASA's NSSDC Master Catalog

Two Line Element Set (TLE):
1   503U 62068A   18144.24279633 -.00000014 +00000-0 +00000-0 0  9990
2   503 047.5139 234.3780 2842812 246.6446 113.8273 07.78166534576140
Source of the keplerian elements: AFSPC